EW0435 Weather Reports


Display with metric or nautical units.
time (UTC)temp
F
wind
direction
speed
MPH
gust
MPH
rain 1hr
in
rain 24hr
in
rain mn
in
humidity
%
barometer
mb
20260503192504 77 347 0.0 0.0 0.00 0.00 0.00 29 1019.1
20260503191004 72 11 0.0 1.0 0.00 0.00 0.00 33 1019.2
20260503190504 70 81 0.0 0.0 0.00 0.00 0.00 37 1019.3
20260503185504 71 84 0.0 0.0 0.00 0.00 0.00 36 1019.4
20260503185004 73 68 0.0 0.0 0.00 0.00 0.00 33 1019.4
20260503184504 73 49 0.0 0.0 0.00 0.00 0.00 30 1019.5
20260503183504 71 71 0.0 0.0 0.00 0.00 0.00 32 1019.5
20260503183004 72 59 0.0 0.0 0.00 0.00 0.00 30 1019.6
20260503182504 72 54 0.0 1.0 0.00 0.00 0.00 30 1019.6
20260503182005 72 52 0.0 0.0 0.00 0.00 0.00 31 1019.6
20260503181505 72 52 0.0 0.0 0.00 0.00 0.00 31 1019.7
20260503181005 73 54 0.0 0.0 0.00 0.00 0.00 33 1019.7
20260503180504 72 21 0.0 0.0 0.00 0.00 0.00 33 1019.7
20260503180004 72 53 0.0 0.0 0.00 0.00 0.00 36 1019.7
20260503175504 72 55 0.0 0.0 0.00 0.00 0.00 38 1019.7
20260503175004 72 61 0.0 0.0 0.00 0.00 0.00 35 1019.8
20260503174505 72 30 0.0 0.0 0.00 0.00 0.00 34 1019.8
20260503174005 71 27 0.0 0.0 0.00 0.00 0.00 33 1019.8
20260503173504 71 46 0.0 0.0 0.00 0.00 0.00 36 1019.8
20260503173004 72 49 0.0 0.0 0.00 0.00 0.00 32 1019.8
20260503172505 71 43 0.0 0.0 0.00 0.00 0.00 37 1019.8
20260503172004 71 33 0.0 0.0 0.00 0.00 0.00 36 1019.9
20260503171504 70 41 0.0 0.0 0.00 0.00 0.00 37 1019.9
20260503171005 70 56 0.0 0.0 0.00 0.00 0.00 43 1019.8
20260503151004 63 300 0.0 0.0 0.00 0.00 0.00 46 1019.7
20260503150504 61 300 0.0 0.0 0.00 0.00 0.00 49 1019.8
20260503130504 52 299 0.0 0.0 0.00 0.00 0.00 57 1019.5
20260503110503 57 281 0.0 0.0 0.00 0.00 0.00 48 1019.8
20260503090504 55 309 0.0 0.0 0.00 0.00 0.00 51 1019.8
20260503081503 57 309 0.0 0.0 0.00 0.00 0.00 47 1019.9
20260503081004 57 309 0.0 0.0 0.00 0.00 0.00 47 1019.9
20260503080504 56 309 0.0 0.0 0.00 0.00 0.00 48 1019.8
20260503072504 57 309 0.0 0.0 0.00 0.00 0.00 47 1019.8
20260503072005 57 309 0.0 0.0 0.00 0.00 0.00 47 1019.8
20260503071504 57 312 0.0 0.0 0.00 0.00 0.00 47 1019.8
20260503071004 56 314 0.0 0.0 0.00 0.00 0.00 48 1019.8
20260503070505 56 313 0.0 0.0 0.00 0.00 0.00 49 1019.8
20260503054503 58 309 0.0 0.0 0.00 0.00 0.00 45 1019.9
20260503053504 58 309 0.0 0.0 0.00 0.00 0.00 46 1019.9
20260503053004 58 309 0.0 0.0 0.00 0.00 0.00 47 1019.9
20260503052505 58 309 0.0 0.0 0.00 0.00 0.00 47 1019.9
20260503052004 58 308 0.0 0.0 0.00 0.00 0.00 47 1019.9
20260503051504 58 300 0.0 0.0 0.00 0.00 0.00 47 1019.9
20260503051004 58 305 0.0 0.0 0.00 0.00 0.00 47 1019.9
20260503050504 58 307 0.0 0.0 0.00 0.00 0.00 47 1019.9
20260503050005 58 322 0.0 0.0 0.00 0.00 0.00 48 1019.9
20260503045504 58 316 0.0 0.0 0.00 0.00 0.00 48 1019.9
20260503045004 58 315 0.0 0.0 0.00 0.00 0.00 48 1019.9
20260503044504 58 313 0.0 0.0 0.00 0.00 0.00 48 1019.8
20260503043504 58 303 0.0 0.0 0.00 0.00 0.00 49 1019.8
20260503043005 58 317 0.0 0.0 0.00 0.00 0.00 50 1019.8
20260503042504 58 316 0.0 0.0 0.00 0.00 0.00 50 1019.8
20260503042004 58 316 0.0 0.0 0.00 0.00 0.00 51 1019.7
20260503041504 58 315 0.0 0.0 0.00 0.00 0.00 51 1019.7
20260503041004 58 315 0.0 0.0 0.00 0.00 0.00 52 1019.7
20260503040004 60 315 0.0 0.0 0.00 0.00 0.00 51 1019.6
20260503035504 60 315 0.0 0.0 0.00 0.00 0.00 49 1019.5
20260503035004 61 313 0.0 0.0 0.00 0.00 0.00 48 1019.5
20260503034504 61 306 0.0 0.0 0.00 0.00 0.00 49 1019.5
20260503033503 61 320 0.0 0.0 0.00 0.00 0.00 50 1019.4
20260503033004 61 320 0.0 0.0 0.00 0.00 0.00 49 1019.4
20260503032503 61 320 0.0 0.0 0.00 0.00 0.00 49 1019.3
20260503031504 62 320 0.0 0.0 0.00 0.00 0.00 49 1019.2
20260503031003 62 320 0.0 0.0 0.00 0.00 0.00 48 1019.2
20260503025004 63 317 0.0 0.0 0.00 0.00 0.00 48 1019.1
20260503024505 63 317 0.0 0.0 0.00 0.00 0.00 48 1019.1
20260503024003 63 319 0.0 0.0 0.00 0.00 0.00 49 1019.2
20260503023504 64 319 0.0 0.0 0.00 0.00 0.00 50 1019.1
20260503022504 65 310 0.0 0.0 0.00 0.00 0.00 50 1019.1
20260503022004 65 301 0.0 1.0 0.00 0.00 0.00 50 1019.1
20260503021503 65 329 0.0 0.0 0.00 0.00 0.00 51 1019.1
20260503021004 67 331 0.0 0.0 0.00 0.00 0.00 50 1019.0
20260503020503 67 331 0.0 0.0 0.00 0.00 0.00 48 1019.0
20260503020004 70 331 0.0 0.0 0.00 0.00 0.00 46 1019.0
20260503015504 71 331 0.0 0.0 0.00 0.00 0.00 37 1019.0
20260503015004 72 331 0.0 0.0 0.00 0.00 0.00 36 1019.0
20260503014504 72 331 0.0 0.0 0.00 0.00 0.00 33 1019.0
20260503014004 72 331 0.0 0.0 0.00 0.00 0.00 32 1019.0
20260503013503 73 332 0.0 0.0 0.00 0.00 0.00 31 1019.0
20260503013005 73 332 0.0 0.0 0.00 0.00 0.00 32 1019.0
20260503012504 73 332 0.0 0.0 0.00 0.00 0.00 33 1019.0
20260503012005 72 332 0.0 0.0 0.00 0.00 0.00 34 1019.0
20260503011504 73 331 0.0 0.0 0.00 0.00 0.00 33 1019.1
20260503011004 73 331 0.0 0.0 0.00 0.00 0.00 31 1019.0
20260503010504 73 330 0.0 0.0 0.00 0.00 0.00 30 1019.1
20260503010004 73 330 0.0 0.0 0.00 0.00 0.00 30 1019.1
20260503005504 73 329 0.0 0.0 0.00 0.00 0.00 29 1019.2
20260503004004 74 327 0.0 0.0 0.00 0.00 0.00 29 1019.2
20260503003503 75 326 0.0 0.0 0.00 0.00 0.00 30 1019.2
20260503003004 75 323 0.0 0.0 0.00 0.00 0.00 27 1019.2
20260503002504 75 27 0.0 0.0 0.00 0.00 0.00 26 1019.3
20260503002004 74 27 0.0 0.0 0.00 0.00 0.00 27 1019.3
20260503001504 74 27 0.0 0.0 0.00 0.00 0.00 27 1019.3
20260503001004 73 27 0.0 0.0 0.00 0.00 0.00 30 1019.3
20260503000504 72 27 0.0 0.0 0.00 0.00 0.00 28 1019.3
20260503000004 72 27 0.0 0.0 0.00 0.00 0.00 27 1019.3
20260502235504 73 22 0.0 0.0 0.00 0.00 0.00 29 1019.4
20260502235004 72 24 0.0 0.0 0.00 0.00 0.00 30 1019.4
20260502234504 72 30 0.0 0.0 0.00 0.00 0.00 29 1019.4
20260502234004 73 56 0.0 0.0 0.00 0.00 0.00 27 1019.5
20260502233504 75 57 0.0 0.0 0.00 0.00 0.00 25 1019.5
20260502232504 75 35 0.0 0.0 0.00 0.00 0.00 24 1019.5
20260502231504 75 60 0.0 0.0 0.00 0.00 0.00 24 1019.6
20260502231004 75 47 0.0 0.0 0.00 0.00 0.00 22 1019.6
20260502230005 74 48 0.0 0.0 0.00 0.00 0.00 27 1019.8
20260502225504 74 46 0.0 0.0 0.00 0.00 0.00 27 1019.8
20260502225004 74 44 0.0 0.0 0.00 0.00 0.00 27 1019.8
20260502224504 74 44 0.0 0.0 0.00 0.00 0.00 29 1019.8
20260502224004 73 61 0.0 0.0 0.00 0.00 0.00 27 1019.9
20260502223504 72 53 0.0 0.0 0.00 0.00 0.00 28 1020.0
20260502222504 74 55 0.0 0.0 0.00 0.00 0.00 26 1020.1
20260502222005 72 15 0.0 1.0 0.00 0.00 0.00 25 1020.1
20260502221504 72 56 0.0 0.0 0.00 0.00 0.00 27 1020.2
20260502221004 72 52 0.0 0.0 0.00 0.00 0.00 26 1020.1
20260502220505 72 61 0.0 0.0 0.00 0.00 0.00 28 1020.2
20260502220004 73 44 0.0 0.0 0.00 0.00 0.00 28 1020.2
20260502215504 73 44 0.0 0.0 0.00 0.00 0.00 28 1020.2
20260502215004 71 57 0.0 0.0 0.00 0.00 0.00 25 1020.3
20260502214504 72 60 0.0 1.0 0.00 0.00 0.00 27 1020.4
20260502214004 73 76 0.0 1.0 0.00 0.00 0.00 25 1020.4
20260502213504 74 23 0.0 0.0 0.00 0.00 0.00 25 1020.4
20260502212504 73 59 0.0 3.0 0.00 0.00 0.00 27 1020.4
20260502212004 73 62 0.0 1.0 0.00 0.00 0.00 27 1020.5
20260502211505 74 49 0.0 0.0 0.00 0.00 0.00 31 1020.5
20260502211004 73 46 0.0 0.0 0.00 0.00 0.00 30 1020.6
20260502210504 72 66 0.0 0.0 0.00 0.00 0.00 30 1020.7
20260502210004 72 67 0.0 0.0 0.00 0.00 0.00 34 1020.7
20260502205503 71 58 0.0 0.0 0.00 0.00 0.00 36 1020.7
20260502204504 70 79 0.0 6.0 0.00 0.00 0.00 36 1020.7
20260502203503 71 66 0.0 0.0 0.00 0.00 0.00 36 1020.8
20260502202504 73 68 0.0 1.0 0.00 0.00 0.00 34 1020.8
20260502202004 73 34 0.0 0.0 0.00 0.00 0.00 32 1020.8
20260502201503 72 43 0.0 0.0 0.00 0.00 0.00 34 1020.8
20260502201004 71 54 0.0 0.0 0.00 0.00 0.00 32 1020.9
20260502200004 72 56 0.0 0.0 0.00 0.00 0.00 34 1020.9
20260502195503 72 46 0.0 1.0 0.00 0.00 0.00 35 1020.9
20260502195004 71 21 0.0 1.0 0.00 0.00 0.00 34 1020.9
20260502194504 70 49 0.0 1.0 0.00 0.00 0.00 35 1020.9
20260502193504 68 80 0.0 0.0 0.00 0.00 0.00 37 1021.0
20260502193004 68 93 0.0 0.0 0.00 0.00 0.00 32 1021.0